Regional Weather Roundup
Issued by NWS

Home | Current Version | Previous Version | Graphics & Text | Print | Product List | Glossary On
Versions: 1 2 3 4 5 6 7 8 9 10 11 12 13 14 15 16 17 18 19 20 21 22 23 24 25 26 27 28 29 30 31 32 33 34 35 36 37 38 39 40 41 42 43 44 45 46 47 48 49 50
000
ASUS43 KDMX 231801
RWRIA

WEATHER ROUNDUP FOR IOWA
NATIONAL WEATHER SERVICE DES MOINES IA
1200 PM CST THU NOV 23 2017

NOTE: "FAIR" INDICATES FEW OR NO CLOUDS BELOW 12,000 FEET WITH NO
SIGNIFICANT WEATHER AND/OR OBSTRUCTIONS TO VISIBILITY.

* - THESE STATIONS ARE NOT NWS STATIONS...THUS NOT UNDER NWS
QUALITY CONTROL.  THEY ALSO DO NOT REPORT WEATHER SUCH
AS PRECIPITATION OR FOG.

IAZ001>003-012>014-020>022-031>034-043>046-231900-
   NORTHWEST IOWA

CITY           SKY/WX    TMP DP  RH WIND       PRES   REMARKS
CARROLL *      SUNNY     50  32  50 NW7       29.96F
CHEROKEE *     SUNNY     49  31  50 W6        29.96F
DENISON *      CLOUDY    52  32  46 W6        29.98F
LE MARS *      SUNNY     50  32  50 SW6       29.96F
ORANGE CITY *  SUNNY     50  34  53 W9        29.95F
SHELDON *      SUNNY     48  30  49 SW10      29.93F
SIOUX CITY     SUNNY     50  34  54 CALM      29.98F
6HR MIN TEMP:  32; 6HR MAX TEMP:  50;

SPENCER        CLOUDY    47  28  47 SW8       29.94F
6HR MIN TEMP:  23; 6HR MAX TEMP:  47;

STORM LAKE *   CLOUDY    46  30  53 W9        29.95F
$$

IAZ055>058-069>071-079>083-090>094-231900-
   SOUTHWEST IOWA

CITY           SKY/WX    TMP DP  RH WIND       PRES   REMARKS
ATLANTIC *     SUNNY     52  34  50 VRB5      29.97F
AUDUBON *      SUNNY     52  34  50 NW3       29.97F
CLARINDA *     SUNNY     55  36  47 NW5         N/A
COUNCIL BLFS * SUNNY     54  36  50 VRB3      29.98F
CRESTON *      SUNNY     52  32  46 NW6       29.98F
HARLAN  *      CLOUDY    54  34  47 N5        30.00F
LAMONI         SUNNY     54  33  45 NW9       29.97F
6HR MIN TEMP:  28; 6HR MAX TEMP:  54;

RED OAK *      SUNNY     55  36  47 CALM      29.99F
SHENANDOAH *   SUNNY     57  36  44 VRB3      30.00F
$$

IAZ047>049-059>061-072>074-084-231900-
   CENTRAL IOWA

CITY           SKY/WX    TMP DP  RH WIND       PRES   REMARKS
AMES           SUNNY     48  29  47 NW5       29.96F
6HR MIN TEMP:  26; 6HR MAX TEMP:  48;

ANKENY *       SUNNY     46  28  49 NW7       29.98F
BOONE *        SUNNY     48  28  46 W7        29.95F
CHARITON *     SUNNY     50  30  46 W10       29.97F
DES MOINES     MOSUNNY   48  28  46 NW6       29.97F
6HR MIN TEMP:  30; 6HR MAX TEMP:  48;

GRINNELL*      SUNNY     47  27  46 W3        29.96F
KNOXVILLE *    SUNNY     48  27  43 W8        29.96F
MARSHALLTOWN   SUNNY     47  28  47 NW7       29.95F
6HR MIN TEMP:  25; 6HR MAX TEMP:  47;

NEWTON *       SUNNY     46  27  46 W8        29.96F
PELLA *        SUNNY     46  27  48 W5        29.98F
PERRY *          N/A     47  27  44 W6        29.97F
$$

IAZ004>006-015-016-023>025-035-036-231900-
   NORTH CENTRAL IOWA

CITY           SKY/WX    TMP DP  RH WIND       PRES   REMARKS
ALGONA *       SUNNY     45  28  53 CALM      29.94F
CLARION *      SUNNY     45  27  49 W6G12     29.94F
ESTHERVILLE    CLOUDY    43  27  53 SW6       29.92F
6HR MIN TEMP:  25; 6HR MAX TEMP:  43;

FORT DODGE *   SUNNY     45  28  51 W6        29.96F
MASON CITY     SUNNY     44  24  45 NW8       29.94F
6HR MIN TEMP:  21; 6HR MAX TEMP:  44;

FOREST CITY *    N/A     43  27  52 NW5       29.93F
WEBSTER CITY * SUNNY     46  27  46 NW6       29.93F
IOWA FALLS *     N/A     46  28  49 W10       29.95F
$$

IAZ007>011-017>019-026>030-037>042-050>054-066-231900-
   NORTHEAST IOWA

CITY           SKY/WX    TMP DP  RH WIND       PRES   REMARKS
CEDAR RAPIDS   SUNNY     45  24  43 W3        29.93F
6HR MIN TEMP:  25; 6HR MAX TEMP:  46;

CHARLES CITY * SUNNY     43  23  45 NW7       29.93F
CLINTON *      SUNNY     43  24  47 W9        29.95F
DECORAH *      SUNNY     41  23  48 VRB5      29.92S
DUBUQUE        SUNNY     41  23  48 SW8       29.93F
6HR MIN TEMP:  25; 6HR MAX TEMP:  41;

MONTICELLO *   SUNNY     45  23  42 SW5       29.93F
OELWEIN *      SUNNY     43  27  52 NW7       29.93F
WATERLOO       SUNNY     44  24  45 W6        29.94F
6HR MIN TEMP:  22; 6HR MAX TEMP:  44;

$$

IAZ064-065-067-068-078-231900-
   EAST CENTRAL IOWA

CITY           SKY/WX    TMP DP  RH WIND       PRES   REMARKS
DAVENPORT      SUNNY     43  24  47 W5        29.97F
6HR MIN TEMP:  29; 6HR MAX TEMP:  43;

IOWA CITY      SUNNY     47  24  40 NW3       29.96F
6HR MIN TEMP:  28; 6HR MAX TEMP:  47;

MT. PLEASANT * SUNNY     45  26  45 W6        29.95F
MUSCATINE *    SUNNY     45  23  42 CALM      29.96F
QUAD CITIES    SUNNY     45  23  42 NW6       29.94F
6HR MIN TEMP:  31; 6HR MAX TEMP:  45;

$$

IAZ062-063-075>077-085>089-095>099-231900-
   SOUTHEAST IOWA

CITY           SKY/WX    TMP DP  RH WIND       PRES   REMARKS
BURLINGTON     SUNNY     46  27  47 W3        29.95F
6HR MIN TEMP:  30; 6HR MAX TEMP:  46;

FAIRFIELD *    SUNNY     46  25  42 W6        29.95F
FORT MADISON * SUNNY     46  27  46 W3        29.96F
KEOKUK *       SUNNY     46  27  46 SW7       29.96F
OSKALOOSA *      N/A     47  27  47 W9        29.97F
OTTUMWA        SUNNY     47  27  45 W8        29.96F
6HR MIN TEMP:  30; 6HR MAX TEMP:  47;

WASHINGTON *   SUNNY     46  27  46 W7        29.96F
$$

ABBREVIATIONS USED IN REMARKS
   TC - TEMPERATURES IN CELSIUS
  WCI - WIND CHILL INDEX
   HX - HEAT INDEX
  VSB - VISIBILITY
$$





USA.gov is the U.S. government's official web portal to all federal, state and local government web resources and services.